Dewpoint
-1 -1 -1 -7 -6 -3 -2 -0 -1 -1 -2 -2 -2 -2 -2 -1 -2 -2 -2 -4 -4 -3 -4 -4 -6 -6 -8 -5 -0 2 3 3 4 4 3 2 1 0 -0 -0 1 1 2 2 1 2 3 -2 2 3 1 1 1 1
-1 0 -0 -2 -4 -2 -1 -0 -1 -1 -2 -2 -1 -2 -2 -2 -2 -1 -1 -3 -3 -3 -3 -5 -5 -5 -5 -6 -4 -2 1 2 3 4 2 1 0 0 1 2 -1 2 -1 0 -0 0 -3 -2 -2 1 1 1 2 2
0 0 -1 -1 -2 -2 -1 -1 -1 -1 -2 -2 -1 -1 -2 -2 -1 -1 -1 -2 -2 -3 -3 -4 -3 -5 -8 -7 -5 -7 -5 1 1 0 3 3 3 0 2 1 1 -1 -2 1 -0 -2 -2 -2 1 1 1 2 2 2
-0 -0 -1 -1 -2 -2 -2 -1 -1 -1 -2 -2 -1 -1 -1 -2 -2 -1 -4 -2 -3 -3 -2 -5 -6 -6 -5 -8 -7 -5 -7 -3 -3 -2 1 4 3 -1 0 -0 0 -0 0 1 0 -1 1 -0 -1 -0 2 2 1 1
0 0 -1 -1 -1 -1 -1 -1 -0 0 -1 -2 -2 -2 -2 -1 -2 -4 -3 -3 -3 -2 -3 -3 -4 -6 -7 -5 -7 -7 -4 -4 -4 -3 -0 3 2 2 1 1 1 0 1 2 1 -2 -1 -1 1 2 2 2 1 1
-1 -1 -1 -0 -0 -0 -0 -0 1 0 -1 -2 -2 -1 -2 -1 -4 -4 -2 -6 -5 -5 -3 -4 -4 -4 -7 -7 -6 -4 -4 -4 -4 -4 -3 -2 0 3 3 1 -2 -2 -0 -0 -1 1 1 2 2 2 1 1 2 2
-1 -1 -0 -0 -0 -0 -0 -0 -1 -1 -2 -2 -2 -2 -2 -2 -3 -4 -3 -5 -4 -3 -4 -4 -4 -5 -6 -2 -2 -3 -3 -3 -4 -3 -5 -4 -1 -0 4 2 -2 -1 -0 1 2 2 2 1 1 1 1 0 -1 -2
-1 -1 -0 -1 -0 -0 -1 -1 -2 -2 -2 -2 -2 -2 -4 -3 -3 -3 -4 -5 -4 -3 -4 -4 -3 -4 -3 -1 -3 -3 -4 -3 -4 -6 -6 -4 -4 -0 4 2 -0 0 0 1 1 1 0 1 0 -1 -1 -2 -1 -1
-2 -1 -1 -1 -0 -0 -1 -3 -2 -3 -3 -3 -3 -4 -2 -2 -3 -4 -4 -4 -3 -3 -3 -3 -2 1 -1 -1 -0 -3 -4 -4 -6 -4 -5 -5 -1 3 3 1 1 1 0 0 0 0 0 -0 -1 -1 1 1 0 -0
-7 -3 -3 0 -1 -1 -2 -2 -3 -3 -4 -4 -4 -3 -2 -4 -4 -5 -2 -3 -3 -3 -3 -3 -2 -1 -1 -0 0 -0 -2 0 -2 -3 -2 1 2 2 2 1 1 -0 -0 -0 -1 -1 -2 -1 1 1 1 1 1 1
-8 -4 -2 -0 -1 -3 -2 -2 -2 -4 -3 -3 -3 -3 -5 -5 -5 -3 -2 -2 -1 -2 -2 -2 -2 -1 -1 0 2 0 1 2 4 3 3 4 4 1 0 -0 -1 -1 -1 -1 -2 -2 -2 0 1 2 1 0 0 0
-8 -2 0 -0 -2 -2 -2 -2 -2 -2 -2 -3 -5 -5 -5 -3 -2 -2 -1 -1 -0 1 -1 -1 -1 -1 -1 -0 0 1 2 2 4 1 3 5 1 -2 -2 -2 -2 -2 -2 -2 -2 -1 0 1 1 1 1 1 -1 -1
-7 -4 -0 -1 -1 -1 -1 -2 -2 -2 -3 -5 -8 -6 -3 -3 -1 -1 -2 -1 -1 -1 -1 -2 -2 -2 -0 1 2 2 3 4 1 4 3 2 -1 -2 -2 -2 -2 -3 -3 -2 -1 -1 0 1 1 1 1 1 1 -1
-15 -5 -0 -1 -1 -1 -1 -1 -2 -2 -3 -4 -6 -7 -2 -2 -2 -1 -2 -1 -1 -2 -2 -2 -3 -2 -0 1 2 3 2 2 3 3 2 1 -1 -2 -3 -3 -3 -3 -2 -2 -2 -1 -1 -1 1 1 1 1 2 2
-17 -4 -0 -1 -1 -1 -2 -2 -2 -2 -3 -4 -5 -4 -4 -4 -4 -4 -5 -5 -4 -5 -2 -2 -2 -2 -0 1 2 2 3 2 -0 1 2 0 -2 -3 -3 -3 -3 -4 -4 -4 -4 -4 -3 -3 -3 -3 -2 -2 -1 -0
-10 -1 -1 -1 -1 -1 -1 -2 -3 -3 -3 -4 -5 -3 -5 -4 -3 -4 -4 -3 -5 -3 -3 -2 -2 -0 1 2 3 4 3 3 2 3 -0 -2 -2 -4 -5 -5 -7 -11 -14 -14 -12 -13 -12 -10 -8 -7 -6 -4 -3 -3
-4 -3 -4 -2 -1 -0 -2 -3 -3 -3 -3 -4 -4 -5 -4 -4 -4 -5 -6 -5 -4 -3 -3 -2 -1 1 -1 2 2 1 3 2 0 -1 -1 -2 -2 -6 -8 -9 -12 -16 -18 -19 -21 -21 -20 -17 -15 -14 -14 -11 -8 -5
-9 -7 -5 -3 -3 -1 -2 -2 -3 -3 -4 -4 -4 -3 -6 -6 -5 -6 -5 -4 -4 -3 -3 -2 -3 -2 -0 2 1 2 1 1 1 -1 -2 -2 -2 -5 -7 -10 -13 -15 -17 -20 -24 -24 -24 -23 -23 -23 -22 -21 -17 -11
-15 -11 -7 -2 -1 -2 -1 -2 -2 -2 -3 -4 -5 -5 -6 -6 -6 -6 -6 -5 -5 -4 -4 -3 -3 -3 -2 -2 -0 -1 -1 -1 -1 -0 -2 -2 -3 -4 -3 -7 -10 -14 -17 -22 -25 -26 -25 -24 -24 -22 -21 -20 -19 -19
-10 -8 -4 -1 -1 -2 -2 -2 -3 -4 -4 -6 -8 -7 -8 -7 -7 -8 -6 -5 -5 -5 -4 -4 -4 -4 -4 -5 -3 -1 0 0 1 0 -0 -1 -2 -3 -4 -4 -8 -13 -17 -25 -26 -25 -24 -24 -23 -22 -20 -18 -17 -17
-5 -1 -2 -3 -1 -2 -2 -3 -4 -5 -6 -7 -9 -9 -7 -9 -9 -6 -7 -6 -5 -6 -5 -5 -6 -9 -8 -7 -8 -7 -7 -6 -4 -1 -1 -2 -3 -3 -4 -5 -8 -12 -18 -25 -23 -22 -22 -22 -20 -19 -17 -15 -15 -15
-6 -3 -2 -2 -2 -2 -2 -3 -4 -6 -7 -7 -8 -9 -7 -6 -6 -7 -8 -7 -6 -6 -6 -7 -8 -8 -8 -8 -8 -8 -7 -7 -7 -7 -7 -4 -3 -2 -3 -3 -5 -10 -19 -23 -21 -21 -20 -20 -18 -16 -15 -14 -14 -14
-6 -5 -3 -3 -3 -3 -4 -5 -5 -5 -5 -6 -8 -7 -7 -8 -9 -10 -8 -7 -8 -10 -10 -10 -10 -10 -11 -16 -18 -17 -12 -8 -7 -8 -9 -8 -7 -4 -3 -5 -7 -13 -23 -22 -20 -19 -18 -18 -19 -17 -14 -14 -14 -14
-5 -4 -4 -5 -5 -4 -6 -6 -7 -7 -8 -7 -7 -7 -7 -8 -11 -9 -8 -8 -11 -11 -12 -13 -15 -18 -18 -17 -16 -15 -13 -10 -9 -8 -9 -9 -7 -5 -5 -9 -17 -23 -23 -20 -19 -19 -18 -17 -17 -18 -16 -14 -13 -14
-4 -4 -5 -4 -4 -6 -6 -7 -8 -8 -7 -7 -8 -7 -8 -10 -8 -8 -8 -8 -11 -11 -17 -19 -17 -16 -15 -15 -15 -14 -12 -9 -13 -13 -12 -9 -6 -5 -8 -14 -20 -22 -22 -19 -18 -17 -16 -16 -16 -17 -16 -14 -13 -14
-4 -6 -4 -5 -6 -6 -6 -7 -8 -8 -8 -8 -9 -10 -11 -9 -8 -6 -7 -11 -11 -16 -17 -16 -15 -15 -13 -13 -12 -13 -14 -8 -9 -14 -13 -9 -6 -6 -9 -14 -17 -18 -17 -16 -16 -16 -16 -15 -15 -16 -16 -14 -13 -13
-4 -5 -5 -6 -7 -7 -8 -10 -10 -9 -8 -8 -8 -10 -9 -7 -6 -8 -11 -13 -16 -15 -11 -11 -13 -13 -14 -13 -10 -10 -15 -14 -14 -13 -11 -9 -8 -8 -10 -13 -15 -16 -16 -16 -16 -15 -15 -15 -16 -16 -14 -13 -13 -13
-6 -7 -6 -7 -7 -8 -8 -9 -9 -9 -8 -8 -7 -8 -7 -6 -6 -10 -11 -10 -10 -11 -12 -12 -14 -16 -15 -15 -15 -14 -12 -12 -13 -15 -14 -14 -16 -16 -17 -17 -17 -17 -16 -16 -15 -15 -15 -16 -16 -13 -13 -13 -13 -13
-6 -7 -8 -8 -8 -8 -8 -8 -8 -9 -9 -9 -7 -6 -8 -10 -12 -12 -12 -11 -11 -13 -15 -16 -17 -16 -16 -17 -16 -15 -13 -13 -14 -17 -17 -16 -17 -17 -16 -16 -17 -18 -18 -17 -16 -16 -16 -14 -13 -13 -12 -12 -12 -12
-7 -7 -8 -8 -8 -8 -8 -9 -9 -9 -8 -7 -7 -9 -10 -10 -11 -12 -13 -15 -16 -16 -17 -16 -15 -15 -15 -15 -16 -15 -13 -12 -13 -14 -14 -15 -16 -16 -15 -16 -17 -18 -17 -16 -15 -14 -13 -12 -12 -12 -12 -12 -12 -13
-7 -7 -8 -8 -8 -10 -9 -10 -10 -9 -10 -10 -11 -11 -11 -11 -13 -15 -16 -18 -19 -19 -16 -15 -15 -15 -14 -13 -13 -12 -12 -12 -12 -12 -13 -13 -14 -13 -11 -12 -15 -16 -16 -14 -13 -12 -12 -12 -11 -11 -11 -12 -12 -12
-8 -7 -8 -10 -10 -11 -11 -12 -12 -11 -11 -11 -11 -12 -12 -12 -12 -14 -16 -16 -15 -14 -14 -14 -14 -14 -14 -13 -12 -12 -12 -11 -11 -11 -12 -13 -13 -14 -15 -15 -15 -14 -13 -12 -12 -12 -11 -11 -11 -11 -12 -12 -12 -12
-10 -10 -10 -10 -10 -11 -12 -12 -12 -12 -12 -12 -12 -12 -12 -12 -12 -14 -16 -17 -15 -14 -14 -14 -13 -13 -12 -11 -11 -11 -11 -12 -13 -14 -14 -15 -15 -15 -13 -13 -12 -12 -12 -12 -12 -12 -12 -12 -12 -12 -12 -12 -12 -12
Wind_Speed
7 6 3 3 3 4 7 10 15 17 16 14 15 16 11 9 9 11 9 10 9 4 15 9 6 7 8 6 4 6 3 5 3 5 4 3 5 6 4 5 6 9 6 6 7 6 7 9 6 4 6 7 4 2
8 6 5 5 5 5 7 9 12 17 16 14 13 16 16 14 10 7 7 10 12 8 9 19 23 20 17 13 8 5 5 5 7 4 6 3 5 3 8 4 9 6 7 3 7 4 4 7 5 3 1 1 1 3
7 7 7 7 7 6 7 9 12 16 17 15 16 17 16 12 6 12 11 11 14 9 16 6 2 4 6 9 21 6 3 4 4 6 5 3 6 4 6 9 7 8 10 4 4 8 10 7 8 1 3 4 3 2
6 7 7 7 7 8 9 10 13 15 16 15 16 17 16 11 10 16 17 12 10 6 5 5 6 9 10 9 11 24 21 9 9 10 4 4 4 7 8 6 8 5 11 10 9 9 2 10 12 10 6 3 4 6
7 7 7 7 7 6 7 10 12 13 15 15 15 14 15 15 15 14 11 7 8 5 4 11 22 7 6 9 14 14 14 13 12 4 3 3 9 4 4 3 8 9 8 9 5 9 11 3 12 10 6 5 8 10
8 8 6 7 8 7 10 12 13 12 15 12 13 13 18 19 14 8 2 4 7 1 4 4 6 4 2 3 7 9 10 9 11 8 6 7 12 8 6 11 15 14 19 17 12 5 3 8 6 5 7 7 9 12
9 9 9 9 9 9 10 12 9 9 9 12 13 15 20 10 7 2 2 4 7 8 2 5 4 3 2 3 2 5 9 6 8 6 10 10 6 12 5 10 6 13 14 11 7 6 5 5 3 5 6 11 16 17
13 11 9 9 8 8 8 6 6 8 11 13 15 18 15 4 5 3 4 5 6 4 2 3 4 4 5 4 4 6 6 7 8 8 9 11 6 4 5 13 9 6 9 10 8 8 5 6 7 10 14 15 16 16
11 11 7 7 6 6 3 3 5 8 12 16 17 11 3 2 2 3 9 10 7 3 3 2 3 3 3 5 3 6 7 4 7 6 7 7 5 5 6 10 11 12 10 8 10 7 7 7 8 11 13 13 13 12
10 9 7 7 6 3 2 3 4 10 13 12 9 3 1 1 10 11 2 0 2 2 4 3 4 3 4 5 5 4 8 3 4 7 9 5 3 14 11 10 4 10 9 9 6 3 5 5 5 8 11 12 13 14
10 11 9 8 5 1 3 2 6 11 12 10 8 2 5 8 4 2 1 2 2 3 4 5 6 5 7 4 2 7 2 2 3 3 3 3 3 4 11 11 8 8 8 7 6 6 5 5 8 13 14 12 13 13
10 10 10 7 5 1 1 3 7 11 11 11 4 5 4 3 2 1 1 2 2 2 5 5 10 13 8 6 5 5 3 2 2 1 2 2 2 4 6 6 6 5 5 4 4 5 5 5 10 11 11 12 11 11
7 7 12 9 4 0 2 5 8 11 13 3 3 3 2 1 1 1 3 0 3 5 3 11 7 6 6 5 6 2 3 2 3 2 2 1 4 5 5 5 4 4 4 5 4 5 3 3 7 6 7 8 8 6
8 10 13 10 6 3 4 3 8 11 6 2 3 2 2 1 2 2 2 2 4 6 12 14 9 5 5 3 2 3 1 3 2 2 2 2 6 7 6 6 4 4 5 4 4 2 3 4 4 6 4 7 9 9
8 11 12 11 8 7 4 7 7 10 4 1 2 1 2 4 6 6 8 8 9 13 9 10 8 5 3 4 2 2 2 3 3 2 3 0 7 7 6 6 6 5 6 6 5 3 1 1 2 4 5 7 8 8
9 12 13 11 9 7 5 6 8 7 2 1 3 3 4 2 4 5 8 9 6 7 10 4 3 3 4 3 3 3 2 2 2 2 5 4 9 8 7 7 5 4 3 3 2 1 2 3 4 5 7 8 8 8
10 9 8 11 9 9 6 6 5 3 4 3 3 8 7 6 7 5 5 5 6 5 2 3 4 2 5 3 3 2 2 3 8 11 7 5 9 8 7 6 5 3 1 1 2 3 4 5 6 7 8 9 9 9
12 8 8 9 7 7 6 4 4 4 5 6 4 1 5 7 7 6 5 5 4 3 2 2 3 3 4 4 2 1 3 8 9 11 4 5 8 8 6 5 4 2 2 2 3 4 4 5 6 7 8 8 8 9
12 11 9 9 11 6 2 3 5 5 7 5 8 10 9 11 14 13 11 7 7 7 6 5 5 4 4 6 6 11 8 6 6 6 8 8 10 11 9 7 6 5 4 4 4 5 5 6 7 8 9 9 9 9
11 9 11 11 10 5 4 3 5 5 4 3 6 6 6 7 11 11 10 7 6 4 6 5 6 7 11 15 12 10 10 8 7 8 10 13 13 13 12 11 10 8 7 6 6 7 7 8 8 9 10 10 10 10
13 13 12 10 13 11 4 5 6 5 5 4 6 6 5 8 8 7 5 6 9 6 7 16 24 30 28 27 26 27 26 23 18 18 16 14 14 17 16 15 13 12 9 8 7 8 8 9 9 9 10 9 9 9
16 18 13 16 10 8 8 8 4 2 4 4 4 5 5 4 4 3 4 7 8 11 14 20 25 24 24 25 24 22 22 22 22 20 19 17 18 16 17 18 17 14 11 9 8 7 8 9 10 10 10 10 10 11
13 12 14 6 6 5 3 6 4 4 3 2 3 3 4 4 4 3 5 8 11 21 22 23 23 23 24 25 24 24 23 21 20 20 23 24 21 18 17 16 16 16 13 11 10 9 10 11 12 12 11 12 12 12
16 10 8 10 12 3 5 5 5 3 2 3 3 4 3 3 2 4 5 7 23 21 17 18 18 20 19 18 17 16 14 16 19 20 19 20 21 19 17 16 15 15 15 13 13 12 13 14 14 15 14 14 13 14
6 9 8 6 7 5 5 4 4 3 4 6 4 4 1 1 2 4 4 11 20 12 9 11 10 9 12 17 16 10 7 11 15 17 17 18 18 17 16 16 17 17 16 17 16 15 17 17 17 18 17 15 16 16
6 12 9 13 7 6 7 5 6 6 3 4 6 2 1 1 3 6 4 5 6 2 9 13 15 15 14 17 17 17 11 10 13 15 13 14 15 16 16 17 17 17 17 16 18 19 20 20 20 19 17 17 18 19
6 7 7 10 7 5 3 2 3 3 4 5 2 4 3 4 6 5 4 4 3 2 12 18 19 20 19 17 16 17 18 15 11 10 9 12 14 15 17 19 19 18 19 20 20 20 20 21 21 19 19 19 19 20
8 13 8 12 7 9 3 4 5 6 4 6 5 6 4 6 4 2 2 9 17 21 26 28 30 31 29 27 25 22 20 19 20 18 16 15 15 16 17 18 19 19 19 21 22 22 22 21 21 20 20 22 22 22
7 9 12 6 5 6 10 8 7 10 9 13 6 5 7 21 26 26 28 30 33 38 43 46 45 41 39 36 32 28 25 24 24 25 26 25 24 22 19 20 20 20 20 22 23 23 22 20 21 23 23 23 23 23
8 18 8 9 6 7 14 17 20 22 21 23 24 21 25 32 36 35 38 41 42 43 43 45 45 42 39 35 32 29 26 26 26 27 29 30 29 25 23 22 21 21 21 21 20 20 22 23 23 23 23 24 24 23
12 20 7 11 8 17 21 22 24 22 20 21 24 26 30 31 41 41 36 36 37 38 39 37 32 27 28 26 25 24 25 22 22 23 24 26 26 25 24 24 23 22 22 21 21 22 22 23 23 23 22 21 20 21
16 13 8 5 6 12 14 8 7 10 15 18 22 22 23 17 16 23 18 24 26 28 27 26 25 26 25 24 24 22 21 19 20 19 17 16 16 17 18 19 20 20 20 21 22 22 23 22 21 19 19 19 19 19
7 8 6 4 4 4 7 7 5 4 7 7 11 19 18 11 10 15 23 25 24 24 23 22 23 22 20 17 16 14 14 13 12 10 9 11 13 14 15 17 19 20 21 21 18 16 15 16 17 16 17 17 16 15
Wind_Direction
205 208 231 266 278 303 326 330 334 337 345 345 345 353 1 354 351 347 339 358 359 287 287 271 267 285 301 278 285 17 253 206 201 236 231 220 260 208 239 212 182 189 197 209 223 229 259 133 134 226 86 115 109 130
206 215 246 267 274 307 322 328 335 336 342 340 340 338 332 342 319 331 325 330 334 299 263 278 280 264 255 257 298 266 316 317 348 252 229 215 225 239 244 233 198 206 206 228 209 226 124 191 271 113 20 219 202 163
219 232 251 264 274 296 313 324 331 328 338 333 330 326 331 335 313 328 311 318 322 303 306 286 320 280 286 260 222 236 254 320 8 351 314 301 246 222 220 242 199 234 219 223 215 249 228 198 197 150 113 113 118 168
234 242 262 268 273 287 308 318 318 322 325 321 323 327 337 331 311 318 308 297 295 290 289 297 309 307 297 268 236 220 246 268 331 334 295 251 234 215 251 267 230 209 169 213 237 261 271 232 225 223 193 217 275 277
239 249 265 276 270 294 305 310 307 307 318 315 325 327 331 320 322 325 318 288 272 251 301 295 302 278 320 223 228 238 243 254 253 280 253 265 264 237 233 265 237 196 207 209 231 229 223 294 196 186 209 257 272 285
229 242 264 276 279 290 311 316 309 301 311 318 324 324 329 319 321 335 352 31 55 30 308 301 309 302 281 253 243 242 228 235 223 217 239 253 258 308 232 235 235 226 227 227 252 195 170 139 169 227 259 258 272 287
232 247 268 274 283 290 296 311 309 301 318 326 325 327 321 316 322 318 313 303 308 322 277 293 289 291 269 238 256 224 216 220 222 243 237 252 266 347 270 233 196 224 218 209 191 177 206 205 186 237 259 278 286 286
233 244 262 266 270 281 297 314 326 329 333 323 318 321 322 313 315 320 330 314 318 314 284 289 283 283 217 219 208 181 194 215 227 239 249 241 248 205 270 234 231 176 182 186 185 198 205 216 261 279 287 291 289 283
225 229 226 241 266 285 273 22 334 330 330 322 323 334 30 27 10 333 318 308 308 259 300 257 298 328 262 245 208 192 198 220 236 225 231 224 203 210 279 301 201 190 189 189 194 214 246 269 278 292 294 293 284 279
214 213 197 232 264 239 66 0 357 329 325 333 344 31 32 320 308 306 12 219 213 246 232 260 265 270 276 233 213 228 201 230 219 216 203 214 260 232 254 291 209 173 183 175 163 224 248 270 302 311 304 292 283 278
204 195 188 219 235 19 64 338 328 343 357 11 352 339 313 331 19 8 291 249 187 236 214 251 258 282 288 241 256 215 228 235 252 163 226 194 233 167 204 205 200 184 185 196 208 238 249 264 310 321 313 306 297 290
194 179 194 208 211 191 356 340 350 1 352 338 321 317 348 9 323 291 342 303 251 327 316 305 312 295 281 251 240 205 251 228 287 84 251 245 87 120 154 175 192 192 201 217 222 228 228 296 320 321 316 312 308 296
204 194 198 203 199 173 48 12 347 347 350 37 32 21 341 312 303 53 351 266 315 323 322 321 323 291 293 265 273 277 270 299 296 254 274 27 138 158 174 186 192 198 191 195 203 203 227 266 319 323 346 338 328 331
222 215 197 202 217 253 349 347 344 352 351 43 41 347 281 241 244 212 255 281 290 286 313 318 304 282 296 279 283 271 323 290 282 281 275 31 162 158 160 167 149 148 151 150 157 180 231 258 291 291 346 326 333 342
220 202 197 202 220 225 261 324 343 346 313 30 115 256 234 301 284 272 272 281 291 303 313 307 279 249 266 276 245 289 246 261 250 283 10 350 169 160 152 147 139 123 115 110 112 112 108 3 305 357 346 325 313 304
184 191 214 211 214 214 239 312 323 321 255 219 231 231 206 286 272 284 279 278 299 309 316 272 274 276 262 290 268 248 272 266 351 350 329 189 174 165 168 166 155 137 121 117 94 43 1 345 360 359 346 342 337 330
182 210 218 212 206 205 246 302 303 253 224 210 251 242 253 255 253 272 291 301 298 320 311 313 280 314 304 262 260 240 270 348 328 326 315 206 194 178 175 173 170 154 123 43 9 345 347 350 351 350 343 343 340 337
207 208 210 211 200 205 246 262 266 250 245 231 218 192 243 257 271 266 274 290 304 287 272 274 301 262 264 271 268 352 321 315 323 320 276 206 202 204 195 199 204 223 275 310 318 326 335 338 338 342 345 344 341 336
221 212 208 188 194 204 244 230 233 272 243 252 254 259 263 271 269 266 264 256 245 241 283 265 248 229 240 248 283 302 308 311 301 305 269 236 224 221 228 231 241 257 274 289 301 311 320 325 327 330 334 336 337 336
208 207 190 180 202 215 240 235 224 259 258 266 261 262 257 260 272 276 269 255 214 200 223 230 229 228 234 261 278 283 291 310 322 317 298 268 242 234 231 238 244 251 266 277 288 300 309 314 317 320 323 327 329 328
195 196 193 182 210 218 261 236 231 245 276 272 279 281 271 269 267 262 267 231 216 215 235 240 247 266 275 277 279 282 278 282 285 284 279 273 267 246 245 245 245 251 257 267 280 296 305 306 307 310 313 315 318 322
214 205 200 208 222 215 234 233 230 245 259 263 270 249 262 270 252 220 233 208 236 237 231 260 267 277 287 287 287 282 278 273 265 268 276 269 263 262 254 252 249 251 252 254 268 288 303 308 308 306 304 305 307 310
220 202 210 210 224 219 233 206 199 219 247 245 270 263 234 231 236 257 249 231 252 270 281 278 286 287 286 291 289 283 270 264 263 257 257 261 263 257 251 249 248 244 244 248 261 278 295 307 308 304 301 301 303 305
200 189 188 201 201 209 191 191 210 227 246 238 236 260 231 224 237 230 254 251 265 280 288 301 297 299 306 307 309 309 280 266 259 257 250 247 246 246 246 247 244 240 240 249 259 272 286 297 301 301 297 295 297 300
193 199 195 202 192 169 197 186 189 199 246 204 210 254 191 224 246 243 242 261 269 275 309 316 329 333 344 353 342 328 308 307 292 272 256 246 241 238 242 241 241 242 246 255 265 275 280 285 292 295 290 289 295 298
210 205 197 184 185 189 190 184 202 215 222 199 230 235 117 245 255 247 227 257 219 7 359 358 350 345 346 348 348 349 321 285 283 278 265 246 239 243 250 248 249 251 256 265 272 276 277 279 284 286 282 286 290 294
208 202 200 198 183 166 172 192 180 202 208 221 203 173 180 222 240 247 258 235 153 26 342 335 333 333 333 327 322 319 315 310 302 282 258 247 246 245 244 249 255 263 269 273 274 274 275 280 281 280 282 283 288 291
208 193 186 175 190 196 174 170 185 215 224 195 166 199 219 215 244 250 259 275 288 297 308 311 311 311 310 309 304 298 295 289 290 282 268 258 254 252 252 254 260 265 271 276 277 277 277 275 275 275 279 285 287 288
197 180 157 152 163 200 215 204 215 221 213 196 192 214 239 263 269 277 289 297 302 302 300 299 299 300 298 298 296 291 281 275 273 270 267 264 261 259 262 259 259 265 273 277 276 274 273 273 278 282 284 286 288 289
180 174 178 176 183 214 225 214 244 251 238 234 244 259 265 267 276 284 287 289 291 291 292 292 291 290 291 291 290 287 281 271 266 265 266 267 268 270 268 264 264 272 278 276 270 269 273 277 281 284 287 288 290 289
175 185 200 198 227 240 243 245 245 247 252 255 256 256 265 280 285 287 291 297 293 290 289 291 294 292 289 287 284 282 281 277 271 266 263 262 263 262 263 264 269 274 275 273 272 274 277 279 281 284 284 284 283 282
188 194 190 208 243 243 244 243 234 236 246 251 258 262 268 278 281 292 297 295 294 293 294 290 287 288 289 287 284 281 276 272 268 268 266 263 257 256 260 266 269 269 271 273 276 279 280 280 280 282 284 284 283 281
198 210 223 278 263 238 215 200 229 258 240 248 248 253 255 245 254 280 296 303 303 305 301 293 288 284 284 283 280 274 271 268 265 261 259 261 264 265 266 269 274 277 278 280 280 279 276 276 280 282 285 287 286 282
Height
1504 1505 1505 1505 1505 1505 1504 1503 1501 1499 1496 1494 1492 1491 1486 1485 1483 1481 1481 1478 1478 1476 1470 1469 1470 1470 1469 1468 1463 1463 1461 1458 1459 1456 1450 1446 1444 1441 1442 1442 1446 1451 1455 1454 1453 1455 1453 1437 1442 1441 1440 1442 1444 1446
1502 1503 1504 1504 1503 1503 1502 1500 1499 1498 1496 1493 1491 1489 1487 1484 1483 1480 1479 1477 1475 1475 1470 1466 1465 1466 1468 1469 1470 1466 1463 1460 1456 1450 1445 1443 1442 1440 1438 1438 1441 1445 1441 1440 1441 1438 1435 1437 1437 1439 1441 1442 1443 1445
1501 1502 1502 1501 1502 1501 1499 1498 1497 1496 1494 1493 1491 1488 1486 1482 1481 1480 1476 1476 1473 1470 1463 1460 1459 1460 1460 1460 1464 1468 1463 1462 1460 1461 1457 1448 1443 1437 1436 1435 1437 1438 1438 1440 1439 1431 1434 1437 1439 1440 1441 1442 1443 1444
1499 1500 1501 1499 1499 1499 1498 1496 1495 1494 1492 1491 1488 1486 1485 1482 1480 1478 1475 1473 1473 1472 1467 1460 1457 1457 1457 1457 1457 1459 1460 1463 1464 1462 1459 1450 1444 1437 1433 1429 1428 1429 1435 1436 1433 1432 1435 1435 1435 1437 1439 1440 1441 1442
1498 1500 1499 1498 1497 1496 1495 1494 1493 1491 1489 1487 1485 1484 1483 1480 1478 1475 1472 1471 1471 1474 1468 1460 1455 1453 1453 1453 1456 1458 1459 1461 1463 1464 1459 1450 1441 1440 1435 1433 1426 1428 1427 1429 1426 1425 1427 1428 1432 1435 1437 1438 1438 1439
1496 1498 1497 1497 1496 1494 1492 1491 1489 1488 1487 1486 1484 1482 1480 1478 1476 1474 1472 1472 1471 1471 1470 1462 1456 1453 1453 1454 1454 1455 1457 1459 1460 1458 1456 1450 1444 1443 1425 1418 1418 1419 1422 1423 1424 1426 1428 1430 1433 1434 1435 1436 1435 1435
1493 1495 1496 1494 1494 1492 1490 1488 1487 1485 1483 1483 1482 1479 1477 1475 1475 1475 1475 1473 1471 1470 1470 1464 1457 1454 1453 1453 1453 1454 1455 1456 1457 1456 1450 1448 1444 1442 1425 1412 1412 1415 1419 1422 1424 1426 1428 1429 1430 1431 1432 1432 1432 1431
1490 1491 1493 1492 1491 1491 1487 1485 1485 1484 1482 1481 1479 1476 1473 1473 1473 1474 1473 1471 1471 1471 1470 1468 1459 1455 1453 1452 1451 1451 1453 1454 1451 1449 1444 1440 1440 1444 1424 1413 1412 1415 1418 1421 1422 1423 1426 1426 1428 1429 1428 1428 1427 1427
1486 1488 1489 1490 1488 1487 1485 1482 1483 1483 1480 1478 1475 1471 1472 1473 1474 1474 1472 1471 1470 1474 1470 1468 1461 1453 1452 1449 1448 1449 1450 1448 1445 1441 1437 1434 1430 1425 1418 1413 1411 1414 1416 1418 1420 1422 1424 1425 1425 1426 1425 1425 1424 1424
1484 1487 1486 1487 1487 1485 1482 1482 1481 1480 1478 1475 1472 1473 1473 1473 1473 1473 1470 1471 1470 1470 1470 1467 1462 1456 1453 1446 1444 1445 1442 1437 1433 1426 1425 1424 1414 1413 1414 1416 1414 1414 1415 1416 1418 1421 1422 1423 1423 1423 1422 1422 1421 1420
1481 1484 1483 1486 1487 1485 1480 1481 1480 1477 1475 1475 1474 1474 1473 1473 1472 1472 1471 1470 1469 1468 1467 1463 1459 1454 1449 1445 1440 1438 1431 1428 1418 1414 1415 1412 1407 1406 1408 1413 1414 1414 1414 1416 1418 1419 1420 1421 1420 1420 1419 1418 1417 1415
1481 1481 1484 1485 1486 1484 1482 1480 1479 1478 1474 1474 1474 1474 1473 1473 1474 1474 1471 1470 1468 1464 1464 1461 1458 1453 1446 1441 1437 1431 1426 1424 1411 1418 1414 1404 1405 1408 1409 1411 1413 1413 1414 1415 1416 1418 1419 1419 1419 1418 1416 1415 1413 1412
1480 1479 1484 1484 1483 1483 1479 1480 1481 1478 1474 1472 1473 1475 1476 1476 1472 1469 1471 1467 1467 1465 1464 1462 1458 1453 1445 1438 1432 1428 1422 1416 1418 1412 1403 1401 1408 1409 1410 1411 1411 1412 1413 1413 1415 1416 1417 1418 1418 1417 1415 1413 1412 1411
1478 1480 1482 1481 1482 1482 1478 1480 1480 1478 1475 1474 1475 1475 1477 1473 1470 1470 1469 1469 1468 1465 1463 1461 1458 1454 1445 1439 1431 1426 1424 1422 1414 1411 1403 1405 1408 1410 1411 1411 1413 1412 1412 1413 1414 1414 1416 1416 1416 1416 1414 1413 1411 1410
1476 1479 1481 1480 1482 1480 1479 1480 1478 1477 1476 1474 1476 1474 1475 1474 1472 1470 1469 1468 1466 1463 1462 1460 1456 1453 1445 1437 1431 1427 1422 1417 1411 1407 1407 1409 1409 1409 1411 1412 1413 1413 1413 1413 1414 1415 1416 1416 1415 1414 1413 1412 1411 1410
1474 1479 1478 1479 1477 1477 1477 1477 1476 1475 1474 1473 1474 1474 1472 1473 1471 1472 1469 1466 1464 1463 1461 1459 1455 1448 1439 1434 1428 1421 1419 1414 1411 1413 1412 1411 1411 1411 1412 1413 1414 1414 1415 1415 1415 1416 1416 1415 1415 1413 1412 1411 1410 1409
1471 1474 1476 1476 1476 1477 1478 1478 1476 1473 1472 1470 1469 1469 1470 1467 1467 1468 1469 1467 1465 1464 1461 1459 1454 1442 1442 1433 1426 1420 1416 1417 1417 1415 1412 1411 1412 1413 1413 1414 1414 1415 1416 1416 1416 1416 1415 1415 1414 1413 1412 1410 1409 1407
1470 1471 1472 1474 1476 1476 1477 1477 1475 1472 1468 1465 1465 1466 1466 1467 1465 1464 1465 1465 1466 1464 1463 1459 1457 1450 1441 1428 1420 1420 1419 1417 1416 1415 1413 1413 1413 1414 1415 1415 1416 1416 1416 1416 1416 1415 1415 1414 1413 1412 1411 1410 1408 1407
1468 1468 1470 1472 1475 1477 1476 1476 1475 1470 1465 1463 1460 1459 1460 1461 1461 1460 1459 1459 1460 1462 1462 1458 1453 1445 1436 1427 1424 1421 1420 1418 1417 1415 1415 1414 1414 1414 1415 1415 1415 1416 1415 1415 1415 1414 1413 1413 1412 1411 1410 1408 1407 1406
1465 1466 1469 1470 1474 1475 1474 1471 1471 1468 1464 1461 1460 1457 1456 1456 1456 1456 1456 1457 1457 1457 1457 1450 1438 1428 1425 1423 1422 1421 1419 1418 1416 1414 1413 1413 1412 1412 1413 1413 1414 1414 1413 1413 1413 1413 1412 1411 1410 1409 1408 1407 1406 1404
1462 1466 1466 1468 1471 1473 1470 1467 1465 1464 1461 1459 1459 1458 1455 1451 1450 1450 1450 1451 1453 1448 1440 1431 1423 1419 1419 1418 1417 1416 1415 1415 1414 1413 1412 1410 1409 1409 1410 1410 1410 1411 1411 1411 1411 1411 1410 1409 1409 1407 1406 1405 1404 1403
1459 1462 1462 1466 1467 1467 1466 1464 1463 1463 1462 1458 1457 1455 1452 1450 1447 1446 1445 1446 1441 1429 1426 1420 1417 1416 1414 1411 1410 1408 1407 1406 1406 1407 1407 1406 1406 1405 1405 1406 1407 1407 1407 1408 1408 1408 1408 1407 1406 1405 1404 1403 1402 1401
1457 1460 1461 1463 1463 1460 1460 1460 1461 1460 1459 1457 1456 1453 1448 1445 1443 1443 1441 1434 1425 1417 1416 1414 1411 1410 1407 1404 1401 1399 1398 1398 1398 1399 1400 1401 1401 1401 1401 1402 1403 1404 1404 1405 1405 1405 1405 1404 1403 1402 1401 1400 1399 1398
1456 1457 1457 1457 1458 1456 1458 1457 1457 1457 1455 1454 1453 1447 1443 1441 1441 1440 1433 1423 1415 1413 1412 1410 1407 1404 1401 1398 1394 1392 1391 1391 1391 1392 1393 1394 1395 1396 1397 1398 1399 1401 1402 1402 1402 1402 1401 1401 1400 1399 1398 1397 1396 1395
1453 1450 1451 1449 1450 1452 1453 1454 1453 1454 1451 1448 1448 1442 1439 1439 1438 1434 1424 1411 1410 1409 1410 1408 1404 1401 1398 1395 1392 1390 1389 1389 1388 1387 1388 1389 1390 1391 1393 1394 1395 1397 1397 1398 1398 1398 1397 1397 1396 1395 1394 1393 1392 1390
1443 1440 1439 1439 1443 1444 1442 1445 1447 1446 1443 1443 1440 1438 1438 1439 1437 1424 1412 1405 1404 1406 1407 1406 1403 1401 1398 1396 1393 1391 1389 1388 1386 1383 1384 1385 1386 1388 1389 1390 1391 1392 1393 1393 1393 1392 1392 1391 1390 1390 1389 1388 1386 1385
1433 1432 1433 1434 1435 1436 1438 1439 1440 1441 1440 1438 1433 1436 1436 1434 1423 1409 1403 1403 1404 1404 1404 1404 1403 1401 1398 1396 1394 1392 1390 1387 1385 1384 1383 1383 1383 1384 1385 1386 1386 1388 1388 1388 1387 1386 1385 1384 1384 1383 1382 1382 1381 1380
1423 1424 1426 1428 1430 1432 1432 1434 1435 1433 1429 1428 1430 1430 1426 1418 1408 1403 1402 1402 1401 1400 1398 1397 1396 1395 1393 1392 1390 1388 1387 1385 1384 1382 1381 1380 1380 1380 1380 1380 1381 1382 1382 1381 1380 1379 1379 1378 1377 1377 1376 1375 1374 1373
1417 1417 1421 1425 1428 1428 1426 1424 1421 1418 1417 1417 1418 1415 1410 1405 1403 1401 1399 1397 1395 1392 1389 1385 1384 1384 1382 1381 1380 1379 1378 1378 1377 1375 1374 1374 1375 1375 1375 1375 1375 1375 1375 1374 1373 1372 1372 1371 1370 1369 1368 1367 1366 1364
1411 1414 1416 1417 1419 1417 1410 1411 1409 1408 1409 1408 1406 1404 1400 1396 1395 1395 1392 1390 1386 1382 1378 1375 1372 1372 1370 1369 1367 1367 1367 1367 1367 1367 1366 1366 1366 1368 1368 1367 1367 1367 1367 1366 1366 1366 1365 1364 1363 1362 1361 1360 1358 1357
1404 1408 1409 1409 1406 1402 1402 1403 1402 1402 1402 1401 1399 1397 1393 1389 1383 1383 1382 1379 1373 1369 1365 1362 1360 1360 1359 1359 1358 1357 1356 1357 1357 1357 1357 1357 1357 1359 1360 1360 1360 1360 1359 1359 1359 1358 1357 1356 1356 1355 1353 1352 1352 1351
1400 1400 1401 1401 1398 1396 1397 1397 1396 1396 1394 1393 1391 1389 1387 1384 1377 1372 1370 1366 1364 1361 1358 1356 1354 1352 1352 1351 1350 1349 1349 1349 1349 1349 1350 1350 1351 1352 1352 1352 1352 1352 1352 1351 1351 1350 1350 1349 1348 1347 1346 1346 1345 1344
1395 1396 1397 1397 1394 1392 1391 1394 1392 1390 1388 1385 1381 1379 1378 1378 1373 1367 1363 1359 1357 1354 1352 1349 1347 1345 1345 1344 1343 1343 1343 1343 1343 1344 1344 1345 1346 1346 1346 1346 1346 1345 1344 1344 1343 1343 1343 1343 1342 1342 1341 1340 1339 1338